Tracking 35331 objects as of 15-Sep-2026
HD Live streaming from Space Station
objects crossing your sky now

DELTA 1 DEB


DELTA 1 DEB is no longer on orbit


NORAD ID: 9297
Int'l Code: 1975-004DY
Launch date: January 22, 1975
Source: United States (US)
Launch site: AIR FORCE WESTERN TEST RANGE (AFWTR)
Decay date: 1977-01-31

Note: This is SATELLITE DEBRIS
Your satellite tracking list
Your tracking list is empty




NASA's NSSDC Master Catalog

Two Line Element Set (TLE):
1 09297U 75004 DY 76306.03473488  .00821102 +00000-0 +00000-0 0  9996
2 09297 098.8710 330.4912 0035222 241.7239 118.0400 15.49360275039206
Source of the keplerian elements: AFSPC